GFSNW_con_lsi_171.txt.gz
Lid_Strength_Index
1 1 1 0 -0 1 2 6 11 6 4 10 10 13 14 10 11 10 11 12 13 14 14 15 15 15 13 11 11 14 12 13 15 14 11 11 11 12 13 17 18 16 17 17
2 2 1 1 0 1 4 8 8 5 5 13 13 12 12 11 11 11 11 12 11 12 13 15 14 13 10 10 11 13 12 15 17 16 14 12 13 12 11 12 14 17 19 16
2 2 2 2 0 1 3 7 11 8 7 10 13 14 14 13 10 11 10 11 11 12 13 13 14 13 11 10 10 8 10 14 15 18 15 13 14 13 12 13 16 16 15 15
2 2 2 2 2 1 3 7 11 8 12 11 12 12 14 13 13 11 10 12 11 12 14 15 14 13 12 11 10 11 12 16 15 13 12 12 13 13 13 15 14 16 14 15
2 2 2 2 2 1 3 8 9 8 11 9 11 11 14 14 12 12 13 13 11 12 13 13 15 13 14 13 13 13 13 16 15 15 13 14 15 13 14 14 14 14 14 15
1 1 0 -1 -1 -1 3 3 4 7 9 10 11 12 13 13 12 11 10 10 12 13 11 11 11 12 12 12 13 14 15 16 16 17 15 16 17 16 15 15 14 14 16 13
-1 -2 -1 -1 -1 -1 1 3 4 8 11 11 11 12 11 12 11 12 12 11 12 11 10 11 13 14 13 14 13 13 16 16 16 18 17 22 15 14 14 15 14 13 14 13
-1 -1 -1 -0 -1 -0 1 2 4 7 10 10 11 11 11 10 11 12 12 11 11 11 12 14 16 17 17 16 15 15 14 16 17 19 20 17 15 15 15 16 14 14 14 13
0 -0 0 0 1 0 2 2 2 5 9 11 9 10 11 14 14 13 12 12 11 11 13 15 18 19 19 19 18 15 15 16 16 18 20 21 16 14 14 14 16 14 12 13
0 0 1 1 1 1 2 2 2 4 8 7 9 11 11 12 14 13 13 13 13 13 15 16 18 18 18 19 19 18 17 18 17 17 17 17 13 13 14 18 16 13 12 12
0 1 1 1 1 1 1 3 2 4 8 7 8 8 11 12 13 14 13 13 14 14 15 16 17 18 18 19 18 18 18 19 20 19 20 21 14 15 16 14 14 13 12 12
1 1 2 2 2 2 1 4 2 3 6 6 6 8 9 10 11 12 13 13 14 13 15 16 16 17 19 19 18 17 18 16 17 16 16 13 14 13 14 13 13 13 12 12
1 1 2 2 2 2 2 4 3 4 6 7 8 9 9 9 10 10 12 12 11 13 13 14 15 16 17 19 18 18 16 15 16 16 15 14 14 14 14 14 13 12 12 12
0 1 2 2 2 3 3 4 3 4 6 9 10 9 10 10 10 10 10 10 11 12 13 14 15 16 15 17 16 17 15 15 16 16 15 15 14 14 14 15 13 13 12 12
0 1 2 2 3 3 4 3 3 3 6 10 11 10 10 10 10 10 10 10 11 13 13 14 15 15 15 16 17 18 15 15 16 15 13 14 14 13 13 14 14 13 13 13
1 1 2 3 3 4 4 9 4 3 4 8 12 11 12 11 11 11 11 11 12 12 13 14 15 14 14 16 17 14 14 14 14 14 14 13 13 14 13 14 13 14 13 13
1 1 2 3 3 5 8 8 5 2 3 8 12 13 12 11 12 12 12 12 13 12 13 14 14 14 14 15 16 13 14 13 13 13 13 13 14 14 14 14 13 11 13 13
1 1 1 2 2 4 6 4 2 2 5 6 12 13 12 11 14 14 13 13 13 13 14 14 14 15 15 16 13 14 14 13 13 13 14 14 14 14 14 14 14 14 13 14
1 1 1 4 4 6 5 2 2 3 6 10 11 14 15 11 13 12 13 13 15 14 15 15 14 16 17 14 13 14 15 14 14 14 14 14 14 14 14 14 15 15 15 14
1 2 5 8 5 3 2 6 9 8 7 9 12 14 14 12 13 14 13 14 15 17 15 14 15 15 13 14 14 14 15 15 15 15 14 14 15 14 15 14 14 14 14 14
4 6 7 6 3 6 9 11 11 11 11 10 13 14 14 11 14 14 14 15 15 20 17 16 17 17 15 15 15 15 15 16 15 15 14 14 14 15 15 15 14 14 14 15
5 5 4 7 9 10 11 12 11 12 12 11 14 13 12 13 12 14 15 16 16 22 14 16 18 17 15 15 16 16 16 15 15 14 14 14 14 14 14 15 15 14 14 14
3 6 10 10 10 13 13 15 13 14 11 12 13 14 13 12 13 15 15 18 18 15 16 18 18 16 16 16 17 16 16 15 15 15 14 14 14 14 15 14 14 14 15 15
7 9 13 13 13 13 13 15 12 12 11 11 12 13 12 12 13 14 18 16 15 17 18 19 20 17 17 17 16 16 16 15 15 16 16 15 16 16 15 15 15 15 15 16
9 10 14 13 11 13 12 11 11 11 9 11 12 12 12 12 14 15 17 18 20 16 18 19 18 17 17 17 16 16 16 16 15 15 16 17 18 17 16 16 15 15 16 16
9 11 13 12 13 14 12 11 11 10 9 11 11 13 14 14 15 20 21 20 21 19 18 17 16 16 16 15 14 15 15 15 15 15 15 16 16 16 16 16 16 16 16 16
11 13 11 13 13 13 13 12 11 9 10 12 14 15 17 14 20 20 20 21 18 16 17 16 14 14 14 14 15 15 15 14 15 16 16 16 16 16 16 16 17 16 16 16

GFSNW_con_lsi_174.txt.gz
Lid_Strength_Index
3 3 3 2 1 1 3 6 10 5 4 9 8 11 10 9 9 8 8 9 10 11 10 11 11 11 10 8 8 10 9 11 15 12 9 8 9 11 11 17 17 15 16 16
4 3 3 2 1 1 4 8 8 5 5 12 11 9 10 10 9 9 9 9 9 9 10 12 10 10 8 8 8 9 9 12 16 14 11 10 11 10 10 11 13 16 18 14
2 2 2 2 1 0 2 7 11 7 7 8 10 11 11 12 8 9 8 9 8 10 10 9 11 10 8 8 8 7 8 11 14 15 13 11 12 11 10 12 16 14 14 13
2 2 2 2 2 1 3 7 11 8 11 11 10 10 10 12 12 9 8 9 9 10 11 11 11 10 9 8 8 8 9 13 13 11 11 11 12 12 11 12 12 15 13 14
3 2 2 2 2 2 4 8 9 9 11 9 10 10 11 11 11 10 10 10 9 8 10 10 11 10 10 10 10 10 9 13 13 14 11 12 13 11 11 12 12 13 13 14
3 3 3 2 2 2 5 4 6 8 10 9 10 11 11 10 9 9 8 8 9 10 8 7 7 7 8 8 10 11 11 13 14 16 12 13 14 12 12 12 12 13 15 12
4 3 3 2 2 2 4 4 4 7 11 9 9 8 8 9 9 9 8 8 8 7 6 7 8 9 9 10 10 10 12 13 14 15 13 17 12 10 11 13 12 11 12 11
3 3 2 1 0 -0 1 1 3 6 10 8 8 8 8 7 7 8 9 8 7 6 8 10 11 13 13 13 12 12 10 12 15 16 16 13 12 11 12 13 12 11 12 11
2 1 0 -0 -0 -0 -0 1 1 4 8 9 6 8 8 9 9 9 9 8 8 8 9 11 14 15 14 15 15 13 12 11 14 16 17 18 12 11 11 11 14 11 11 11
0 0 0 0 0 0 1 2 1 4 9 6 6 9 9 7 9 10 9 9 10 9 10 12 14 14 14 16 16 16 14 14 16 16 16 13 10 10 11 14 13 10 11 11
0 -0 0 0 0 0 1 3 2 4 7 5 4 4 6 7 9 10 9 10 10 10 11 12 12 13 14 14 14 14 14 15 16 16 17 16 9 11 12 10 9 10 10 10
0 0 1 0 0 1 1 5 3 2 5 5 4 3 4 3 5 7 10 9 9 8 9 11 11 14 15 14 15 14 15 12 13 13 13 10 9 10 9 9 10 10 10 9
0 0 -0 -0 0 1 2 4 5 3 7 6 6 6 5 6 6 5 9 9 9 9 7 9 11 13 12 15 14 14 14 11 12 13 12 11 10 9 11 11 10 10 9 9
0 0 -0 -0 0 1 2 4 4 4 5 8 8 6 7 6 6 6 6 8 9 8 8 9 10 12 12 13 13 13 12 12 12 13 12 11 11 10 10 11 11 10 9 10
1 0 0 0 0 1 2 4 4 3 5 9 10 7 8 7 7 7 7 7 8 8 9 9 10 11 12 12 13 13 13 12 12 12 11 11 11 10 10 10 10 10 10 10
1 1 1 0 0 1 4 8 2 2 3 8 11 8 9 8 7 8 9 8 9 8 8 9 10 11 11 12 13 10 11 12 10 10 11 11 10 11 10 11 10 10 10 10
1 1 1 0 1 2 6 7 4 2 2 8 11 11 9 8 8 9 9 9 9 8 9 9 10 11 10 12 13 10 11 11 11 10 10 11 11 11 11 11 11 10 10 10
1 1 1 0 0 1 5 4 3 4 5 6 10 12 10 8 10 11 10 10 9 10 10 10 10 11 11 13 11 10 11 11 11 11 11 11 11 11 12 12 12 11 11 10
1 1 0 1 2 6 5 3 1 2 6 10 10 12 13 9 11 11 11 10 12 11 11 10 11 12 13 11 10 11 11 11 12 12 12 11 12 11 12 12 12 12 12 11
1 2 4 6 4 3 3 6 9 9 8 8 11 9 12 10 11 12 12 11 13 14 12 11 12 12 10 10 11 12 12 12 13 14 13 12 12 12 12 12 11 11 12 12
3 6 6 3 3 6 9 10 10 10 11 9 11 10 12 9 12 13 12 13 13 14 13 13 15 15 12 13 13 12 12 13 13 13 13 13 12 12 12 12 11 12 12 12
4 5 3 5 8 9 11 11 10 10 12 11 11 11 10 10 10 12 13 14 14 15 13 15 17 13 13 13 13 13 13 13 13 13 13 13 13 12 12 11 11 12 12 12
3 6 7 9 10 13 13 14 12 12 11 11 11 11 11 11 11 13 13 15 16 14 16 17 15 14 14 14 13 13 13 13 13 13 13 13 13 12 12 12 12 12 12 12
8 8 12 12 12 12 12 12 11 10 10 10 9 11 10 11 12 13 15 15 15 17 17 17 15 15 14 13 13 13 13 13 14 14 14 14 15 14 13 13 12 12 12 13
9 8 14 13 10 10 11 10 10 10 8 9 10 10 10 12 12 13 15 17 17 16 16 15 14 14 13 13 13 13 14 13 14 14 14 15 15 14 14 14 13 13 13 14
9 10 13 12 12 12 11 10 10 9 9 9 9 11 12 12 13 15 17 17 17 15 15 14 14 14 13 13 13 14 14 14 14 14 14 14 14 14 14 14 14 14 14 14
11 12 11 12 12 13 12 11 11 9 9 11 11 12 13 13 16 16 16 15 15 15 14 13 12 13 13 13 13 13 13 14 14 14 14 14 14 14 14 15 15 15 15 14

GFSNW_con_lsi_177.txt.gz
Lid_Strength_Index
3 3 3 2 2 2 3 7 11 6 4 9 10 12 9 8 8 7 8 8 9 10 10 10 10 10 9 7 7 10 8 10 14 12 9 9 9 10 10 16 16 15 16 16
4 4 4 3 3 2 4 8 8 6 6 13 12 9 8 8 9 8 9 9 8 8 10 12 10 9 7 6 7 9 8 11 15 13 12 10 10 10 10 11 12 16 18 15
4 4 3 3 4 2 3 7 11 9 8 8 10 10 10 10 8 9 8 9 8 9 10 9 10 10 7 6 7 6 7 10 13 15 13 11 12 11 10 11 15 14 14 13
4 3 3 2 2 2 3 6 9 8 12 11 10 9 10 10 11 8 8 9 9 9 11 10 10 8 8 7 6 7 8 12 11 11 11 11 11 12 11 12 11 14 12 13
3 3 2 2 2 2 4 8 9 9 10 9 10 11 11 11 9 9 9 10 9 9 10 10 11 9 9 9 8 8 8 12 12 13 12 12 12 11 11 11 11 12 12 13
4 4 3 3 3 3 5 5 4 7 10 10 11 11 11 10 9 8 8 8 9 9 8 7 6 6 7 7 8 9 10 11 13 15 13 13 13 11 11 11 11 11 14 12
5 4 4 4 4 4 5 6 7 9 12 11 11 10 9 10 9 10 7 7 9 7 5 5 6 6 7 7 8 7 10 12 13 15 14 17 11 9 10 11 11 10 11 11
5 5 4 4 4 4 5 4 6 9 13 10 10 9 9 8 8 9 8 7 6 4 6 9 10 10 11 10 9 9 9 11 14 16 16 13 11 11 11 12 12 10 11 11
5 4 4 4 4 3 4 4 2 5 11 12 7 8 7 9 8 8 8 5 3 5 8 11 14 14 13 14 13 11 10 10 13 14 17 18 11 10 9 11 14 10 10 10
4 4 4 3 3 2 2 2 1 3 8 8 6 8 8 6 7 9 7 6 7 6 10 13 13 13 11 14 14 15 14 13 15 15 16 14 9 9 10 14 12 9 9 10
3 3 2 2 1 0 0 1 0 3 7 7 5 4 6 6 7 10 7 9 8 9 12 12 11 12 11 12 11 13 13 14 15 14 15 18 8 10 12 10 8 9 9 9
1 1 1 0 -0 -0 -0 3 1 0 5 6 4 4 3 3 3 5 6 7 8 8 10 9 9 11 11 11 14 10 13 10 12 12 12 9 9 9 8 9 10 9 9 9
-1 -0 -0 -1 -1 -0 0 2 1 2 6 7 7 6 4 2 2 1 7 7 6 7 5 7 8 11 10 13 12 12 11 9 12 12 9 10 9 9 8 8 10 9 9 8
-1 -1 -1 -1 -1 -0 0 2 1 3 6 10 7 4 5 3 4 3 3 4 5 6 6 8 8 10 9 10 11 11 11 11 12 12 10 9 10 9 9 8 9 10 9 9
-1 -1 -1 -1 0 0 1 0 1 1 7 9 7 6 6 5 5 5 5 6 6 7 9 9 9 8 10 10 11 12 10 11 12 12 9 9 10 9 9 9 9 9 9 9
-1 -1 -1 -1 1 1 2 5 0 1 3 8 10 7 8 7 6 6 7 6 6 6 7 8 8 8 9 11 12 9 9 9 9 10 9 9 9 10 10 10 9 9 9 9
-0 -0 -1 -0 0 1 5 6 1 1 4 9 10 10 9 7 8 8 7 7 7 7 6 8 8 9 8 10 12 9 9 9 9 9 10 10 9 10 10 10 10 9 9 9
-1 -0 -1 -0 0 1 3 1 1 2 6 8 10 10 10 8 10 10 7 8 7 7 7 9 9 9 9 12 9 8 9 9 9 9 9 10 10 10 10 10 11 11 10 10
-0 -0 -1 1 2 4 3 0 1 2 6 9 9 11 12 8 9 9 9 7 10 9 10 9 9 10 12 10 9 8 9 10 9 10 10 10 11 10 10 11 11 11 11 10
-0 1 4 6 3 1 1 2 6 7 7 9 9 8 11 8 9 9 10 9 11 13 11 10 11 11 8 8 8 8 9 10 11 12 11 11 12 11 10 11 11 11 10 10
2 5 6 3 2 4 5 8 10 9 11 9 8 9 11 8 10 10 9 11 11 13 12 12 13 14 10 9 9 10 10 10 10 10 11 11 12 12 12 11 10 10 11 10
3 4 3 4 6 7 9 10 9 10 11 10 10 10 9 9 8 10 11 12 12 14 12 13 15 11 11 11 11 11 11 11 11 11 11 11 11 12 12 12 11 10 10 10
2 5 8 8 8 11 12 13 12 11 10 10 10 10 10 10 9 10 11 13 14 12 15 16 12 11 12 12 12 12 11 11 11 11 11 12 12 12 12 12 11 10 10 10
7 9 11 10 11 10 10 11 11 9 8 9 9 10 10 9 10 11 13 14 14 16 17 16 12 12 12 12 12 12 11 11 12 12 13 13 14 13 13 13 12 11 11 11
9 8 12 11 9 9 9 9 9 9 8 8 9 10 9 10 11 11 14 16 17 15 15 13 13 13 12 12 12 12 12 11 12 12 13 14 14 14 14 13 12 12 12 12
9 9 10 9 11 10 10 10 10 8 8 8 9 10 11 11 11 14 15 16 16 14 14 13 13 13 12 12 12 12 12 12 12 12 13 13 13 14 14 13 13 13 13 13
9 10 9 11 12 12 11 11 10 9 9 10 10 12 12 11 13 14 14 14 14 14 13 12 12 12 12 12 12 12 12 12 13 13 13 13 13 13 14 15 14 14 14 14

GFSNW_con_lsi_180.txt.gz
Lid_Strength_Index
3 3 2 2 2 2 3 6 10 4 3 9 9 12 11 8 9 8 9 9 10 11 11 12 12 12 10 8 8 11 9 11 16 13 9 9 12 13 12 18 18 17 17 17
3 3 3 2 2 1 4 8 8 5 5 13 12 10 10 9 9 9 10 10 9 9 11 13 12 11 8 7 8 10 10 13 18 16 13 11 13 12 11 12 13 16 19 17
4 3 3 3 3 2 4 8 12 9 9 9 12 12 12 11 8 9 8 9 9 10 11 10 12 11 8 7 8 6 7 12 14 17 15 12 14 12 11 13 17 16 15 14
4 4 3 3 3 3 5 8 10 9 14 13 12 11 11 11 11 9 8 10 10 10 12 11 11 10 9 8 6 8 9 14 13 12 11 12 13 13 12 14 13 16 14 14
4 3 3 3 3 2 5 9 10 10 11 10 11 11 12 12 11 10 10 10 9 9 11 10 11 10 11 11 9 10 9 14 13 15 12 13 14 13 12 12 12 13 13 14
5 5 4 4 3 3 6 5 5 8 10 10 11 12 11 11 10 9 8 9 10 10 9 7 8 8 8 9 10 11 11 13 15 17 14 14 17 14 13 13 12 13 15 13
4 4 4 4 4 4 6 7 7 10 13 12 12 11 10 11 10 11 9 8 9 7 5 6 7 8 8 9 9 9 12 13 14 17 16 20 13 11 12 12 12 11 12 12
5 5 5 5 5 4 6 5 7 10 14 12 12 11 11 10 10 10 10 8 6 5 7 11 13 13 12 11 10 9 10 12 15 18 18 15 13 13 13 14 14 12 12 12
5 5 5 5 5 5 6 6 5 8 13 14 11 12 11 13 12 11 9 7 6 7 9 11 15 16 14 16 15 11 11 11 14 16 18 19 14 12 11 12 17 11 11 12
5 5 5 4 4 4 5 6 5 8 13 12 9 12 12 9 10 10 9 8 8 6 10 13 14 15 11 14 16 17 15 14 15 16 17 15 11 11 12 17 15 11 11 12
4 4 4 4 4 3 4 5 3 6 11 11 8 7 10 8 8 10 8 8 8 9 12 12 13 13 12 12 12 15 15 16 17 16 17 19 10 12 15 12 12 12 11 11
4 4 3 3 3 2 1 5 2 2 8 10 5 5 4 4 5 7 7 8 8 8 10 11 11 12 10 11 14 12 15 12 14 14 14 11 10 11 11 11 11 13 12 11
3 2 2 1 1 0 0 3 2 2 6 8 8 8 4 3 4 3 8 7 5 7 6 9 10 12 9 13 13 14 13 10 13 13 12 11 10 9 11 12 12 12 11 11
1 1 0 -0 -1 -1 -0 2 1 2 5 9 10 4 5 2 3 4 5 6 4 4 5 8 10 12 8 10 11 13 13 11 13 13 12 12 11 11 11 12 11 11 11 11
-0 -0 -0 -0 -1 -1 -0 1 1 1 5 10 9 6 6 6 4 4 4 5 5 7 9 10 10 8 10 11 13 14 12 13 14 14 11 12 12 11 11 12 12 11 12 12
-1 -1 -1 -1 -1 -2 1 5 1 0 1 7 11 6 7 6 6 6 5 5 6 6 8 8 8 7 10 13 14 11 11 10 10 12 12 11 11 11 11 11 12 12 12 11
-1 -1 -1 -1 -1 0 4 6 2 0 2 8 12 10 8 7 7 7 6 6 7 8 9 8 8 9 9 12 14 10 10 10 11 11 12 12 11 12 11 11 11 11 12 11
-1 -1 -1 -1 -1 -0 3 2 0 1 5 6 12 11 10 8 10 10 8 9 8 9 8 8 9 10 11 14 10 10 11 11 11 11 11 11 11 11 11 11 12 12 12 12
-2 -1 -1 1 2 4 3 -1 -0 1 4 9 10 11 12 9 10 9 9 8 11 8 10 9 9 11 14 11 10 10 11 11 11 11 11 12 12 12 12 12 12 13 12 12
-1 0 4 7 3 -0 0 2 5 6 6 7 10 7 11 9 9 10 10 10 10 12 11 10 11 13 9 9 9 9 10 11 11 13 14 13 13 12 12 12 12 11 11 12
2 5 7 2 -0 3 6 9 8 8 9 8 8 8 11 8 10 10 9 11 11 13 13 13 15 15 12 10 10 10 11 11 12 12 12 13 13 13 13 12 12 11 11 11
1 2 2 3 7 10 11 10 9 10 11 8 9 9 8 9 7 10 10 11 11 15 12 15 17 14 13 12 12 12 12 12 13 12 12 12 12 12 12 12 12 12 12 11
1 4 8 9 10 13 13 14 12 11 9 9 9 10 10 10 10 10 11 13 14 12 15 16 15 13 13 13 13 13 13 13 13 13 13 12 13 13 13 13 12 12 12 12
6 11 15 11 13 12 10 10 10 9 9 9 8 10 10 10 11 10 12 13 13 16 17 19 16 14 13 13 12 13 13 13 15 14 14 14 15 14 14 13 13 13 13 12
9 10 12 13 9 8 9 9 9 9 8 9 10 10 10 10 12 11 15 16 17 16 18 16 15 13 13 13 13 13 13 13 14 14 15 17 16 16 15 14 14 13 13 13
10 11 12 9 11 11 11 11 11 9 10 9 10 10 11 12 11 14 16 17 18 16 16 14 14 14 13 13 14 14 13 14 14 14 14 14 14 15 15 15 15 14 14 14
10 12 9 10 10 12 12 12 11 10 12 10 10 12 13 11 13 13 15 17 14 14 14 13 13 13 13 13 14 14 14 14 14 14 14 14 14 16 16 16 16 15 15 15

GFSNW_con_lsi_183.txt.gz
Lid_Strength_Index
4 4 4 3 3 2 3 6 11 6 4 10 9 11 9 7 8 8 10 11 12 13 13 15 15 14 12 9 9 11 10 13 17 15 10 10 11 13 14 20 20 17 18 17
3 3 3 3 3 2 6 8 7 5 5 13 13 10 10 8 10 10 10 11 10 11 13 14 14 13 9 8 9 11 11 14 19 18 15 12 14 12 12 14 16 16 20 17
3 3 3 3 3 2 4 9 12 9 7 8 11 12 12 12 8 9 9 10 10 11 12 11 13 12 9 9 9 6 8 13 16 18 17 14 14 12 12 14 19 17 16 15
4 3 3 3 3 3 6 8 11 9 13 12 11 11 12 13 12 10 9 11 10 11 13 12 13 11 11 10 8 9 10 15 14 13 13 12 13 13 13 14 14 17 14 14
4 4 4 4 3 3 7 12 11 10 11 11 12 12 14 13 12 12 12 12 10 10 12 11 12 11 11 12 11 11 10 14 14 16 12 13 15 13 13 13 14 14 13 14
5 5 5 4 4 4 7 7 7 9 12 12 12 12 12 12 10 10 9 9 10 11 10 9 9 8 9 9 11 11 11 13 16 17 15 15 17 14 14 13 13 13 16 13
5 5 5 5 4 5 7 7 8 10 14 12 12 11 11 11 10 11 10 9 11 9 6 7 8 10 10 10 10 9 12 12 14 17 16 21 14 11 12 13 13 12 13 13
5 5 4 4 4 4 8 7 8 10 14 13 13 12 12 12 12 12 11 10 8 7 10 12 14 15 14 13 11 11 10 12 16 16 19 16 13 13 13 15 14 13 13 13
5 5 5 4 4 5 8 9 8 9 13 15 12 14 14 16 16 14 12 9 8 9 11 13 16 18 16 16 15 12 12 11 13 17 18 20 14 13 12 13 17 12 12 13
4 4 5 5 5 5 7 8 8 11 15 13 13 15 15 13 14 15 12 11 11 9 13 14 15 16 13 16 16 16 15 15 15 14 16 16 12 11 12 17 16 12 13 13
4 4 4 4 5 5 7 9 7 9 12 13 11 11 13 12 11 14 12 13 12 10 12 12 13 14 13 14 13 15 14 16 16 14 16 19 10 13 15 12 13 12 13 13
4 4 4 4 4 4 5 9 7 6 10 11 9 8 7 6 6 9 11 12 10 8 10 11 11 13 12 13 16 11 15 13 15 14 14 10 10 12 11 11 12 12 13 13
4 4 4 4 4 3 4 8 7 8 12 12 12 10 6 5 5 4 10 8 8 8 6 8 10 12 11 14 12 11 11 9 13 13 11 10 10 10 10 10 12 12 12 12
4 4 4 3 3 2 2 6 6 6 9 14 13 6 8 5 4 4 4 6 5 6 6 8 9 11 8 11 10 11 10 10 11 13 12 11 11 11 10 10 11 12 12 11
2 2 2 2 1 1 2 4 4 3 6 13 12 8 6 5 5 6 5 6 7 8 10 9 10 8 9 9 9 11 9 11 12 13 11 11 12 12 10 11 12 12 12 12
1 0 0 -0 -0 -1 3 7 3 1 2 7 11 9 8 6 5 6 7 7 6 7 9 9 7 6 8 11 12 10 9 9 10 12 11 11 12 11 11 11 11 12 12 12
-1 -1 -1 -1 -1 2 4 7 3 -1 0 6 12 14 7 5 6 6 7 5 5 7 8 9 8 8 7 10 12 8 9 10 11 11 11 12 11 11 11 11 11 10 12 11
-2 -2 -2 -2 -1 0 4 1 -1 -1 3 5 13 14 10 6 8 9 7 8 8 8 8 8 9 9 9 12 9 7 8 10 11 11 11 11 11 11 11 11 11 12 12 12
-2 -2 -2 1 3 6 5 -1 -1 -0 4 11 11 13 14 7 8 8 9 9 11 8 10 9 9 11 12 11 9 9 9 10 10 11 11 11 12 12 12 12 12 13 12 12
-2 1 4 8 4 -1 1 3 7 5 5 7 10 8 11 8 8 10 10 10 10 13 11 9 11 13 9 9 8 9 9 10 10 12 13 13 13 12 13 13 12 12 12 12
2 4 7 4 -0 3 7 9 8 9 10 8 9 9 11 6 10 10 9 10 10 13 12 12 14 14 11 8 9 9 10 10 11 11 11 12 12 13 13 13 12 11 11 12
2 2 2 4 8 14 14 15 10 9 11 8 9 9 9 9 7 9 10 11 11 14 12 12 15 13 10 10 11 12 12 11 12 12 12 12 12 12 12 13 12 12 11 11
1 5 11 8 15 13 18 21 14 13 8 8 8 10 9 10 9 10 11 13 13 12 13 14 14 12 12 13 13 13 13 12 12 12 12 12 13 13 13 13 12 12 12 12
6 12 15 13 17 15 14 12 10 9 8 9 9 9 10 9 11 11 13 13 12 15 16 17 14 13 13 13 13 13 14 13 15 14 14 14 15 14 14 13 13 12 13 12
10 11 15 18 10 8 7 8 9 8 8 9 10 10 10 10 11 11 14 15 17 17 17 15 14 13 13 14 14 14 14 14 14 14 16 18 17 16 15 14 13 13 13 13
11 16 14 11 11 11 10 10 11 9 10 10 10 10 11 11 11 15 18 18 19 16 15 14 14 14 15 15 14 14 14 14 14 14 14 14 15 15 15 15 14 14 14 15
14 15 12 10 12 11 12 11 11 10 12 13 10 12 12 10 13 13 15 17 14 14 13 14 15 13 15 15 14 14 14 14 14 15 15 16 16 16 16 16 15 15 15 15

GFSNW_con_lsi_189.txt.gz
Lid_Strength_Index
3 3 3 3 3 3 4 7 12 6 4 10 11 13 11 8 8 8 9 11 12 13 13 14 14 14 13 10 10 13 12 15 18 16 12 12 13 14 14 17 20 17 19 18
4 4 4 3 3 3 6 9 9 5 5 13 13 11 10 8 8 8 9 10 9 10 12 14 14 14 10 9 11 13 12 16 20 18 16 14 15 14 13 15 17 17 21 17
4 4 4 4 4 3 5 10 13 9 8 9 12 13 12 11 8 9 9 11 10 11 12 11 14 13 10 10 10 7 10 15 16 20 17 15 16 15 13 15 17 16 16 15
5 5 5 4 4 3 6 9 12 10 14 12 11 11 12 13 12 10 9 10 11 12 13 12 13 12 11 10 9 11 12 17 16 15 14 14 14 14 13 14 14 16 15 15
5 5 5 5 4 3 7 10 11 10 12 11 12 12 12 13 13 12 13 13 11 11 12 11 13 11 12 12 11 12 11 15 14 15 13 14 15 13 13 13 13 14 14 14
5 5 5 5 4 5 8 7 7 10 13 12 13 13 13 13 12 11 11 11 12 12 11 10 10 10 9 9 12 13 13 13 15 18 15 15 17 14 14 14 14 14 16 13
6 6 5 5 4 6 9 7 9 11 14 13 13 12 11 12 11 12 11 11 12 11 10 11 11 12 11 10 11 10 13 14 15 18 17 21 16 13 12 13 12 13 13 12
6 6 6 5 5 5 9 9 10 12 17 14 13 13 13 13 14 14 13 12 11 11 12 14 16 16 15 14 12 12 11 13 18 19 19 16 15 12 14 15 13 12 14 13
5 5 5 5 5 5 8 10 8 10 15 16 13 14 14 16 17 16 14 11 11 12 13 14 20 20 18 18 16 14 13 12 16 18 18 21 16 14 13 13 16 13 13 14
4 4 4 4 4 5 8 9 8 11 15 14 14 15 16 14 15 16 15 13 13 12 15 17 19 19 16 19 18 17 16 16 17 17 17 16 13 11 12 17 15 13 13 13
4 4 4 4 4 4 7 8 8 9 12 13 12 12 13 13 14 17 15 16 16 15 18 16 17 18 17 18 17 17 17 18 18 16 17 19 11 13 14 12 12 12 12 13
4 4 4 4 4 4 6 10 7 7 9 11 10 10 9 10 11 13 14 15 14 13 12 15 15 16 17 18 20 15 18 14 17 15 15 12 12 12 10 11 11 11 12 12
4 4 4 4 4 4 6 10 9 7 9 12 13 12 9 8 8 9 14 13 11 12 11 15 15 19 17 19 16 15 14 13 14 14 13 11 10 8 9 10 11 10 11 12
4 4 4 3 3 4 5 9 8 9 10 14 15 10 12 8 8 9 9 10 10 10 11 15 16 18 14 17 15 13 12 11 13 13 12 11 10 9 9 9 9 11 11 12
4 4 3 3 3 3 5 8 7 7 10 15 15 12 9 8 9 9 9 9 10 11 12 13 14 13 12 13 13 15 12 11 12 12 9 11 10 9 10 11 11 11 11 12
4 3 3 2 2 2 6 10 7 4 6 11 18 12 11 9 10 10 9 9 9 10 10 11 11 9 10 13 15 11 9 8 8 10 8 8 8 8 9 9 9 11 11 11
2 2 1 1 0 3 6 8 6 1 2 9 16 15 11 9 8 7 8 8 9 8 9 11 10 9 8 11 15 11 9 7 7 7 7 8 7 8 8 9 10 9 11 11
1 0 -0 -1 -1 0 2 1 -1 -1 4 6 12 14 13 7 12 11 6 7 8 8 9 9 10 9 9 13 11 9 8 7 8 8 7 7 8 9 10 11 11 11 12 11
-1 -1 -2 0 2 4 4 -1 -1 2 6 13 13 16 18 7 9 7 6 6 9 7 11 11 9 11 14 12 11 10 8 8 8 7 7 8 9 9 11 11 11 12 12 11
-1 1 4 6 4 -0 0 4 9 5 7 7 11 11 14 9 10 11 10 9 10 14 10 8 11 12 9 9 8 7 7 7 7 10 11 12 11 11 12 11 11 11 11 11
3 4 6 4 0 5 10 15 10 15 14 9 9 10 12 9 13 13 10 12 11 14 12 12 12 13 10 7 8 7 7 8 8 8 7 8 9 11 11 12 12 11 12 12
3 4 3 4 7 10 14 16 15 13 13 9 9 9 9 9 8 11 10 12 12 16 10 12 14 11 12 12 10 8 8 9 9 10 10 10 11 11 12 12 12 12 12 11
1 4 9 11 12 16 18 24 20 18 10 9 9 11 9 9 9 10 11 13 14 11 12 15 14 12 13 13 12 12 11 11 11 11 11 11 12 12 12 12 13 13 12 12
5 9 13 14 21 14 16 16 14 11 11 10 10 11 11 8 10 11 12 12 12 15 16 16 16 15 14 13 13 12 13 12 12 12 12 12 13 13 13 13 13 13 13 13
7 10 15 17 14 17 14 12 9 9 9 11 12 11 12 11 10 11 11 14 17 16 16 15 15 13 14 13 13 13 14 14 14 14 15 16 15 15 15 14 14 13 13 13
8 11 15 14 13 15 15 13 12 10 10 9 10 13 14 11 11 12 14 16 17 15 14 13 12 13 13 14 13 14 14 14 14 14 14 14 14 15 16 15 15 15 14 14
12 12 12 14 16 16 16 15 13 9 11 13 12 14 13 12 12 15 13 16 13 12 12 12 12 12 13 14 14 14 14 15 15 15 15 16 16 16 16 16 17 16 15 15

GFSNW_con_lsi_192.txt.gz
Lid_Strength_Index
3 3 3 3 3 3 5 8 14 8 5 11 10 12 10 8 9 9 10 12 13 13 13 14 15 14 13 10 9 12 11 14 18 16 14 13 13 14 16 20 21 17 19 19
4 4 4 4 3 3 7 9 9 6 6 15 13 11 10 9 10 10 11 12 10 10 12 14 14 14 10 9 10 12 12 15 20 18 16 14 15 15 14 15 17 19 19 17
5 5 5 5 4 3 6 9 13 10 8 10 12 13 12 12 9 10 10 10 9 10 12 11 13 13 11 10 10 7 10 15 16 20 17 15 16 15 14 15 17 16 16 15
5 5 5 5 4 4 8 10 12 10 15 12 12 12 12 13 13 10 10 11 10 11 13 12 13 12 12 11 9 11 12 16 16 15 15 15 15 15 14 14 14 17 15 15
5 5 5 5 5 4 9 13 11 10 12 11 12 13 13 14 13 12 13 13 11 11 13 11 13 11 11 12 11 12 11 15 14 16 14 15 15 14 13 13 13 14 14 14
5 5 5 5 5 6 10 9 7 10 13 12 13 13 12 11 11 11 10 11 12 12 11 10 10 11 11 11 12 13 13 15 16 19 17 16 19 15 14 14 14 14 17 13
6 6 5 5 5 6 10 9 10 13 17 12 13 12 11 11 12 12 11 11 12 11 10 11 13 13 13 12 11 11 14 14 17 20 18 23 16 13 13 13 13 13 14 13
6 6 6 5 5 5 10 10 11 14 20 14 14 13 13 13 13 14 13 12 11 11 13 16 17 18 17 15 12 11 11 14 18 20 20 17 16 14 14 15 14 12 14 13
5 5 5 5 5 5 9 10 10 10 16 17 13 15 15 16 16 15 14 12 11 13 14 15 21 21 19 19 17 14 12 12 15 19 20 22 16 14 12 13 16 12 13 13
5 5 5 5 5 5 8 10 9 12 17 14 14 15 16 14 15 16 15 14 14 12 15 17 19 20 17 20 19 17 16 15 16 17 18 18 14 11 12 18 16 13 12 12
5 5 5 5 4 5 7 9 8 10 14 13 12 12 14 13 13 17 15 16 16 15 18 17 17 18 18 19 17 18 18 18 19 16 18 20 12 13 14 13 13 12 10 12
5 5 4 4 4 4 6 11 8 8 10 13 10 10 10 10 11 13 14 15 15 14 14 16 15 16 18 19 21 17 19 16 18 16 17 13 13 12 11 12 12 11 12 10
5 4 4 4 4 4 5 10 9 8 10 12 12 12 9 9 9 9 14 14 12 13 13 16 17 19 16 20 19 17 15 14 15 16 14 13 11 10 10 11 11 9 10 11
4 4 4 4 4 4 5 8 8 10 11 15 14 11 12 9 9 10 9 10 11 12 13 17 18 18 15 20 18 18 16 15 15 15 13 11 10 10 10 10 10 10 11 11
4 4 4 4 3 4 6 6 7 7 11 16 15 12 9 9 10 10 9 10 11 13 13 14 16 14 15 15 16 17 14 14 15 16 12 12 10 10 10 11 10 9 11 10
4 4 4 3 3 4 8 11 8 6 7 11 17 12 11 10 10 10 10 9 9 10 12 13 13 12 13 16 18 15 13 12 11 12 10 9 10 10 9 10 9 8 10 11
4 4 3 2 2 5 7 9 7 3 4 9 14 15 10 9 8 8 10 9 10 10 11 13 13 13 10 15 19 14 11 11 10 9 9 11 10 11 9 9 9 9 10 11
2 2 2 1 1 2 4 2 -0 0 4 5 11 14 12 7 12 13 8 10 10 10 11 12 12 11 11 17 13 11 10 9 9 8 7 8 7 9 9 9 10 10 11 11
1 1 0 2 3 4 5 -0 -0 1 3 11 12 15 17 8 10 10 11 7 10 8 11 11 9 12 15 13 12 11 10 10 9 8 8 8 9 8 8 9 10 11 11 11
-0 2 5 6 4 -0 1 5 9 5 5 8 10 10 14 9 10 11 12 12 13 13 11 9 12 13 10 9 9 9 9 9 9 10 11 9 9 8 9 10 10 10 10 10
4 6 8 5 1 5 11 15 10 14 14 10 8 10 11 7 12 12 9 14 14 17 13 13 14 13 10 9 9 8 8 8 9 8 7 7 8 7 8 10 10 10 11 11
3 5 4 5 9 13 15 19 16 12 13 9 9 9 9 8 8 11 11 13 12 17 12 12 14 11 10 11 11 11 10 8 8 9 8 8 9 9 10 11 11 11 11 11
1 4 8 11 15 18 18 22 19 20 14 14 15 13 10 8 9 10 11 14 15 12 13 14 13 11 12 13 13 12 12 9 9 10 10 10 11 11 11 12 11 11 12 12
7 9 15 17 21 16 15 15 14 12 13 13 11 12 12 10 11 13 13 12 11 14 16 15 13 13 13 12 12 12 13 12 12 11 11 11 12 12 12 12 12 12 13 13
8 12 17 18 14 18 17 15 13 10 11 13 14 14 13 13 13 11 12 14 15 14 15 14 12 12 13 13 13 13 13 13 13 13 13 13 14 14 14 13 13 13 13 13
8 13 13 13 17 17 18 16 12 11 12 11 11 15 16 14 12 12 13 15 16 15 13 11 12 12 12 13 13 13 13 13 13 13 13 13 13 14 15 15 15 14 14 14
13 13 10 14 16 15 16 16 15 13 13 16 16 18 15 13 14 13 13 15 15 14 13 11 11 12 12 13 13 13 13 14 15 14 14 15 15 15 15 16 17 15 15 15

GFSNW_con_lsi_195.txt.gz
Lid_Strength_Index
5 5 5 5 3 2 5 8 15 8 4 11 11 13 12 9 10 8 9 10 11 13 14 15 15 14 13 10 10 12 11 14 16 15 12 12 12 13 14 19 20 18 20 19
6 6 5 4 3 3 8 9 9 5 5 14 13 11 12 10 10 10 10 10 10 11 13 15 14 13 10 9 11 13 11 15 19 17 15 13 14 14 14 15 17 19 20 18
6 5 5 4 4 3 7 9 13 9 8 10 12 13 13 12 9 10 9 10 10 11 12 12 14 13 9 9 9 7 9 14 16 19 17 15 16 15 14 15 19 17 17 16
5 5 5 5 5 4 9 10 12 10 14 12 12 12 12 13 13 10 9 10 11 11 13 13 13 11 11 10 9 10 11 15 16 15 14 14 14 14 14 15 15 17 15 15
5 5 5 5 5 4 9 13 12 10 12 12 12 12 13 13 12 12 12 12 11 11 13 12 13 11 11 12 11 12 11 15 14 15 14 14 15 14 14 14 13 14 13 14
6 6 5 5 5 6 11 8 8 10 13 13 16 15 13 12 11 11 10 11 12 12 11 9 9 10 11 12 13 13 13 15 16 19 16 16 19 16 15 14 13 14 16 13
6 6 6 5 5 7 10 9 12 14 18 13 14 12 11 12 12 13 12 11 12 10 11 12 12 12 13 13 13 11 15 15 16 19 18 23 16 14 13 14 13 13 13 13
6 6 6 5 5 5 11 12 12 15 22 15 15 14 13 13 13 14 13 12 12 12 13 16 17 18 17 16 14 13 12 15 18 20 21 19 16 14 15 15 14 13 13 13
5 5 5 5 5 5 10 11 11 13 18 19 14 15 16 16 17 16 14 12 12 12 14 15 20 21 20 19 18 14 12 12 16 19 21 23 17 13 12 13 16 13 12 13
5 5 5 5 5 5 9 10 10 13 19 15 15 16 16 14 16 17 15 14 14 12 15 16 18 20 18 21 20 18 15 15 17 17 19 18 14 12 12 17 16 13 13 13
5 5 5 5 5 5 8 10 9 12 15 14 13 12 14 14 15 18 16 16 16 15 18 17 17 18 19 20 18 18 18 18 18 17 18 21 13 13 14 12 13 12 12 12
6 6 5 5 4 5 7 11 9 8 10 13 11 11 11 11 11 14 14 15 16 14 17 15 16 17 18 19 21 17 19 17 18 17 17 14 14 13 11 11 12 12 12 11
5 5 5 5 4 4 5 9 8 8 10 12 12 13 11 10 10 10 14 14 12 13 13 16 17 21 18 22 20 17 15 15 17 16 16 14 13 11 11 12 12 11 11 11
5 5 4 4 4 4 5 7 7 9 11 17 15 11 13 11 10 10 10 10 11 12 13 17 18 20 16 20 18 18 16 17 17 17 15 13 12 11 10 10 10 11 11 11
5 5 4 4 4 4 6 8 7 7 10 15 15 13 10 11 10 10 10 11 11 14 14 16 17 15 16 16 17 18 16 16 18 18 14 14 13 11 11 12 11 11 12 11
5 4 4 4 4 4 9 11 9 7 7 11 15 12 12 11 11 11 11 10 11 12 13 14 13 13 15 20 19 15 14 13 11 14 12 12 12 11 11 11 11 11 11 11
4 4 4 4 3 7 10 11 8 5 5 9 14 14 9 9 8 9 10 10 11 11 11 13 13 13 12 16 19 14 12 12 12 11 11 13 12 13 10 12 11 10 10 11
4 3 3 3 3 4 6 5 1 2 5 6 11 14 12 8 13 13 8 11 9 9 10 11 12 12 12 17 14 12 12 11 10 10 10 12 11 11 11 11 11 11 10 10
3 3 2 5 5 6 6 1 1 2 5 9 13 15 17 8 10 9 10 9 13 10 12 11 11 13 16 13 12 12 11 12 11 10 11 11 12 11 10 10 10 11 10 10
2 5 7 10 6 1 2 6 9 5 5 6 11 10 15 10 9 11 10 13 13 19 12 11 13 14 11 10 10 9 9 9 10 11 11 10 11 10 10 9 8 8 8 10
6 9 9 6 2 6 12 17 10 14 15 10 9 11 12 8 13 12 9 13 14 16 14 14 15 14 11 9 10 9 9 9 9 9 9 9 9 9 9 9 9 9 10 10
5 6 5 6 11 16 17 21 17 14 13 11 10 10 10 10 8 11 11 14 13 18 12 14 15 11 10 11 11 11 10 11 11 9 9 10 9 8 7 7 9 10 10 9
2 5 10 11 17 19 19 22 19 19 14 13 15 14 12 11 9 11 12 15 16 12 14 14 13 12 11 11 12 12 11 11 11 11 10 9 9 8 9 10 10 10 10 10
7 13 17 17 24 18 17 16 15 12 12 13 14 13 15 13 14 12 15 13 13 15 15 15 13 12 11 11 11 12 12 12 12 11 10 10 10 11 11 10 10 10 11 11
9 10 17 18 14 18 18 18 15 11 11 13 13 14 12 14 14 13 13 14 14 14 16 14 13 12 11 11 12 13 13 13 12 12 12 12 12 12 12 12 12 11 12 12
10 15 15 14 17 18 19 19 16 12 12 11 11 13 16 15 13 14 13 14 17 15 14 13 12 12 11 12 12 13 13 14 13 12 12 12 12 13 14 14 14 14 13 14
15 13 10 13 15 16 16 17 15 14 13 17 18 17 18 16 16 14 14 16 15 14 13 13 12 12 12 12 12 13 13 14 14 13 13 14 14 14 14 15 15 15 15 15

GFSNW_con_lsi_201.txt.gz
Lid_Strength_Index
8 8 8 7 6 6 6 7 12 6 4 10 10 12 11 9 9 7 9 9 10 11 11 12 11 11 10 6 7 10 8 10 13 12 9 9 8 10 10 14 16 14 15 15
8 8 8 8 7 5 6 9 10 6 6 13 12 11 11 10 10 9 10 10 9 9 11 13 11 10 8 7 7 9 8 11 14 13 11 10 11 10 10 11 11 15 17 14
8 8 8 8 7 6 5 9 14 10 8 10 11 12 12 12 9 10 9 10 9 10 12 10 11 11 9 8 8 7 8 10 13 15 14 11 13 11 11 12 14 14 14 13
8 8 8 7 7 6 6 9 13 10 14 12 11 11 12 12 12 9 9 11 11 11 13 12 12 10 9 8 8 8 8 12 12 11 11 11 12 12 12 12 12 14 13 13
8 8 7 7 6 6 8 11 12 10 11 11 11 12 12 13 12 12 11 12 11 11 12 11 13 11 11 11 10 10 9 13 12 14 11 12 13 11 11 11 12 12 12 12
8 8 7 7 7 6 9 8 8 9 12 12 12 12 12 12 11 10 11 11 11 11 11 10 10 9 9 9 11 11 12 12 14 16 13 13 15 13 12 12 11 11 14 11
7 7 7 7 7 6 7 8 8 11 13 12 13 12 12 12 11 12 11 10 11 10 9 9 9 10 11 10 10 9 12 12 12 15 14 20 13 10 11 12 11 11 11 10
7 7 7 7 7 7 8 8 8 10 13 12 13 13 12 11 10 11 11 10 10 9 11 13 14 14 14 13 12 11 10 12 14 16 17 14 13 12 12 14 13 10 11 11
7 7 7 6 7 7 8 8 7 9 13 14 12 13 12 13 13 13 12 10 9 10 12 14 17 17 15 16 14 11 12 12 14 15 19 20 14 11 10 10 15 11 11 11
6 7 7 6 6 6 7 8 7 9 12 12 12 13 13 12 13 14 13 12 12 10 13 15 16 17 13 17 17 15 14 15 16 16 17 16 12 10 10 16 14 10 10 10
6 6 6 6 6 6 6 8 6 8 11 11 11 11 12 12 12 14 12 13 12 13 15 15 15 15 14 15 14 14 15 15 16 15 17 19 10 11 14 11 10 10 10 10
6 6 6 6 6 5 6 8 6 6 9 10 9 8 8 8 9 11 11 12 12 11 13 13 13 15 14 15 18 12 16 13 14 13 13 10 10 10 9 10 11 10 10 9
6 6 6 6 5 5 5 6 6 7 10 10 10 10 7 6 7 6 12 10 10 11 9 12 13 16 14 17 16 15 13 11 14 13 12 11 10 10 9 9 10 9 9 10
6 6 6 6 5 5 5 6 6 6 9 12 11 8 9 7 7 6 7 8 8 9 9 12 13 15 12 15 14 15 13 13 14 14 12 11 11 10 10 10 10 11 11 11
6 6 6 6 5 5 4 4 5 5 8 12 11 8 7 7 7 8 7 8 9 10 11 13 14 12 12 12 13 15 12 14 15 16 12 12 12 10 10 11 11 11 11 11
6 6 6 5 5 4 5 9 5 5 6 10 13 8 8 8 8 8 8 8 8 9 10 11 10 8 10 14 15 12 11 10 10 12 10 11 10 10 10 11 11 11 11 11
6 6 6 5 4 4 7 9 6 5 4 10 13 12 8 8 8 7 7 7 7 8 9 10 9 9 9 12 16 11 10 10 10 10 10 12 11 12 10 10 10 10 10 10
5 5 4 4 4 4 6 5 4 4 6 8 13 12 9 7 8 9 5 7 6 7 8 8 9 8 8 13 10 9 9 9 10 10 10 11 10 11 11 10 10 11 11 11
4 4 3 4 6 8 7 4 3 3 6 10 10 12 13 6 7 7 7 6 10 7 10 10 10 11 13 11 10 9 9 9 9 9 9 10 11 11 11 11 11 11 11 10
4 4 7 9 7 4 5 6 7 7 6 6 9 7 10 7 8 9 9 8 11 13 11 9 12 13 10 9 9 9 8 8 7 9 9 10 11 10 10 10 10 10 10 9
6 8 9 6 6 5 7 10 10 10 11 7 7 8 9 6 10 10 9 11 11 15 13 14 14 14 11 9 9 9 9 9 8 8 8 8 8 9 9 9 9 9 8 9
6 6 5 5 7 9 11 12 11 12 11 7 8 7 7 7 6 10 10 12 12 16 10 13 16 12 10 10 11 10 10 9 9 9 10 9 8 7 7 8 8 8 8 7
4 7 9 9 11 13 14 16 13 12 9 7 6 9 7 7 8 10 11 14 15 10 13 14 13 11 11 11 11 11 10 10 10 11 9 8 8 7 6 7 7 7 7 6
8 10 13 11 13 12 11 11 9 8 8 7 7 9 10 9 11 11 15 12 11 14 15 15 13 12 12 11 11 12 12 11 11 11 9 9 8 8 7 6 6 5 5 6
8 9 13 12 9 9 9 9 9 7 7 7 8 9 10 11 12 12 12 14 15 14 15 14 12 12 12 12 12 12 12 12 12 11 10 9 9 9 8 7 6 6 6 6
7 8 11 9 11 9 10 10 9 7 7 6 8 12 13 13 12 13 15 15 15 14 13 13 12 12 12 13 12 12 12 12 12 12 11 10 10 10 10 9 8 8 8 8
8 9 7 8 8 9 8 8 8 6 7 10 11 14 14 12 14 14 11 14 14 13 13 12 12 13 13 12 12 11 12 12 12 12 11 11 11 10 11 11 11 10 10 10